Showing default

DSAT, 42794

Orbit data source: Space-Track

DSAT, 42794 is a payload satellite owned by D-ORBIT (IT) in SSO that was launched on Fri, 23 Jun 2017 UTC via a PSLV-XL launch vehicle from the Sirharikota (SRI). Payload-class satellites include a variety of spacecraft equipped with specific instruments for various scientific and technological missions. These include communications satellites like Starlink; space stations such as the ISS; scientific satellites like the Hubble; Earth observation satellites from companies like Planet Labs, Umbra, and HawkEye 360; GPS; miniature CubeSats for education and research; and military/defense satellites.

Loading next visibility...
Identifier
42794, 2017-036AF
Orbit
SSO
Country
Flag of ITIT
Related business
Manufacturer
D-ORBIT
Mission
Non-operational Commercial Technology
Bus & Motor
CUBESAT 3U, Unknown motor
Mass
4.5 kg wet, 4.2 kg dry
Launch date (UTC)
2017-06-23 (8 years ago)
Launch vehicle
PSLV-XL
Launch site
Sirharikota (SRI)
Object type
Payload
Rocket body
Debris
Shape & HBR
Box, 0.1 m
Radar Cross Section
0.035 m², Small (<0.1 m²)

Expand to show TLE details & history
Last TLE update: 20 hours ago

TLE from 20 hours ago
0 DSAT
1 42794U 17036AF  25260.91613311  .00009035  00000-0  48511-3 0  9992
2 42794  97.5253 237.0928 0091961  24.3251 336.2278 15.11509887449646
Epoch: 2025-09-17T21:59Z
TLE epoch observation values (Epoch: 2025-09-17T21:59:13.9Z)
Latitude
-0.00006°
Longitude
-89.80033°
Altitude
476.602 km
Speed
7.659 km/s
True Right ascension
15h 48m 22s
True Declination
0° 00' 00"
Sunlit
Object was in daylight at epoch
Visualization orbit readout
Latitude
Unknown
Longitude
Unknown
Altitude
Unknown
Speed
Unknown
Apparent Right ascension
Unknown
Apparent Declination
Unknown
Sunlit
N/A
Visualization observer readout
Local Sidereal Time
10:54:32
Azimuth
Unknown
Elevation
Unknown
Doppler factor
Unknown
Orbital elements
Apogee altitude
592.091 km
Perigee altitude
465.062 km
Semi-major axis
6,906.714 km
Eccentricity
0.0092
Inclination
97.5253°
RAAN
237.0928°
Arg. of periapsis
24.3251°
True anomaly
335.7985°
Mean anomaly
336.2278°
Eccentric anomaly
336.01361°
Mean motion
3.78126 °/min
Orbital period
95.21 mins
BSTAR
0.00048511
Loading maneuver chart data...
Computing Atmospheric mass density...
Loading historical data...
Loading historical data...
Loading historical data...
Loading historical data...
Loading historical data...
Loading historical data...
Loading historical data...

Documentation

Showing up to 5 results
|